Hourly Data Report for July 10, 2021

IQALUIT CLIMATE
NUNAVUT
Current Station Operator: ECCC - MSC

63°44'50.000" N
68°32'40.000" W
33.50 m
2402592
71321
XFB

Download Data

Hourly Data (July 2021)
Hourly Data Report for July 10, 2021
TIME
LST
Temp Definition
°C
Dew Point Definition
°C
Rel Hum Definition
%
Precip. Amount Definition
mm

Wind Dir Definition
10's deg

Wind Spd Definition
km/h
Visibility Definition
km
Stn Press Definition
kPa
Hmdx Definition


Wind Chill Definition


Weather Definition


00:00 4.6 4.1 97 0.7 20 2   100.33     LegendNANA
01:00 5.2 4.7 97 0.4 6 3   100.35     LegendNANA
02:00 5.6 4.2 91 0.2 9 9   100.40     LegendNANA
03:00 5.5 3.8 89 0.1 13 4   100.43     LegendNANA
04:00 5.0 4.1 94 0.0 15 3   100.46     LegendNANA
05:00 5.6 4.4 92 0.0 25 7   100.51     LegendNANA
06:00 4.9 4.2 95 0.0 25 10   100.56     LegendNANA
07:00 5.2 4.5 95 0.0 24 8   100.59     LegendNANA
08:00 5.5 4.6 94 0.0 14 3   100.61     LegendNANA
09:00 6.0 5.2 94 0.0 13 4   100.62     LegendNANA
10:00 7.0 5.4 89 0.0 19 6   100.63     LegendNANA
11:00 7.1 5.3 88 0.0 15 4   100.65     LegendNANA
12:00 7.9 5.7 86 0.0 14 9   100.68     LegendNANA
13:00 8.7 5.1 78 0.0 21 7   100.72     LegendNANA
14:00 9.2 5.8 80 0.0 24 8   100.73     LegendNANA
15:00 9.6 5.2 74 0.0 21 9   100.73     LegendNANA
16:00 9.7 5.1 73 0.0 22 9   100.78     LegendNANA
17:00 9.9 4.7 70 0.0 25 13   100.80     LegendNANA
18:00 10.3 5.1 70 0.0 23 3   100.82     LegendNANA
19:00 10.5 3.9 63 0.0 5 16   100.86     LegendNANA
20:00 9.1 3.1 66 0.0 5 22   100.89     LegendNANA
21:00 8.2 3.2 71 0.0 5 19   100.94     LegendNANA
22:00 7.4 2.9 73 0.0 3 17   100.94     LegendNANA
23:00 5.8 2.4 79 0.0 32 11   100.97     LegendNANA

Notes on Data Quality.

Legend

  • E = Estimated
  • M = Missing
  • NA = Not Available*
  • [empty] = Indicates an unobserved value
Date modified: